Flag for Hungary Weather past 2 weeks in Miskolc, Hungary

Now
69 °F

Mild.


Feels Like: 69 °F
Forecast: 45 / 75 °F
Wind: 1 mph from North

Location: Miskolc

Current Time: Aug 21, 2014 at 3:01:26 PM

Latest Report: Aug 21, 2014 at 2:00 PM


Visibility: N/A

Pressure: 29.90 "Hg

Humidity: 77%

Dew point: 61 °F

Location of MiskolcLocation

Historic Weather in Miskolc — Graph

°F

Miskolc temperature yesterday

Maximum temperature yesterday: 71 °F (at 2:00 PM)
Minimum temperature yesterday: 60 °F (at 6:00 AM)
Average temperature yesterday: 65 °F

Past Weeks' High & Low Weather Summary

 TemperatureHumidityPressure
High87 °F (Aug 10, 5:00 PM)93% (Aug 21, 2:00 AM)30.01 "Hg (Aug 21, 2:00 AM)
Low51 °F (Aug 18, 6:00 AM)37% (Aug 16, 4:00 PM)29.68 "Hg (Aug 14, 1:00 AM)
Average69 °F73%29.91 "Hg
* Reported Aug 6 1:00 PM — Aug 21 1:00 PM, Miskolc, Weather by CustomWeather, © 2014

Note: Actual official high and low records may vary slightly from our data, if they occured in-between our weather recording intervals... More about our weather records

Advertising

Miskolc weather history for previous 24 hours

 ConditionsComfort  
Time TempWeatherWind HumidityBarometerVisibility
1:00 PM
Aug 21
67 °FOvercast.2 mph83%29.90 "Hg6 mi
12:00 PM66 °FOvercast.1 mph85%29.90 "Hg4 mi
11:00 AM63 °FLight rain. Overcast.No wind91%29.90 "Hg2 mi
10:00 AM62 °FLight rain. Overcast.1 mph92%29.90 "Hg2 mi
9:00 AM62 °FThundershowers. Overcast.No wind92%29.91 "Hg1 mi
8:00 AM62 °FFog.No wind90%29.91 "Hg2 mi
7:00 AM61 °FFog.No wind92%29.92 "Hg2 mi
6:00 AM60 °FFog.No wind93%29.93 "Hg2 mi
5:00 AM59 °FPassing clouds.No wind93%29.93 "Hg6 mi
4:00 AM59 °FPassing clouds.No wind92%29.93 "Hg6 mi
3:00 AM60 °FOvercast.1 mph92%29.95 "Hg6 mi
2:00 AM60 °FPassing clouds.No wind93%29.95 "Hg6 mi
1:00 AM61 °FPassing clouds.No wind92%29.96 "Hg6 mi
12:00 AM61 °FPassing clouds.No wind92%29.96 "Hg6 mi
11:00 PM
Aug 20
62 °FPassing clouds.No wind92%29.96 "Hg9 mi
10:00 PM63 °FPassing clouds.No wind92%29.96 "Hg7 mi
9:00 PM63 °FOvercast.1 mph92%29.95 "Hg7 mi
8:00 PM64 °FRain showers. Overcast.1 mph91%29.96 "Hg5 mi
7:00 PM66 °FSprinkles. Overcast.2 mph90%29.94 "Hg5 mi
6:00 PM69 °FOvercast.2 mph76%29.94 "Hg16 mi
5:00 PM69 °FSprinkles. Overcast.1 mph76%29.95 "Hg19 mi
4:00 PM69 °FSprinkles. Overcast.2 mph73%29.97 "Hg19 mi
3:00 PM70 °FOvercast.2 mph70%29.98 "Hg19 mi
Weather by CustomWeather, © 2014

See weather overviewHow to use our weather pages